Printer-friendly version

IAU Minor Planet Center

Minor Planet Center

(192) Nausikaa

Orbital Elements

The following orbital elements are taken from MPC 31001:
  (192) Nausikaa
Epoch 2007 Apr. 10.0 TT = JDT 2454200.5                 Goffin
M 274.66688              (2000.0)            P               Q
n   0.26442395     Peri.   29.97100     +0.97214838     -0.23188252
a   2.4040059      Node   343.33357     +0.18445790     +0.84659233
e   0.2457705      Incl.    6.81438     +0.14457803     +0.47907402
P   3.73           H    7.13          G   0.03           U   0
From 864 observations at 67 oppositions, 1847-1996, mean residual 0".53.
An explanation of the orbital elements is available.

These orbital elements are also available in forms suitable for loading into a number of popular planetarium-type software programs.


Ephemeris

The following ephemeris is at intervals of five days. A daily ephemeris covering the same time interval is also available.

Personalized ephemerides for this object (and others) can be generated using the MPES.

Date    TT    R. A. (2000) Decl.     Delta      r     Elong.  Phase     V
 
2007 04 21    19 15.84   -30 33.3    2.029    2.470   103.9    23.3    11.9
2007 04 26    19 20.10   -30 39.8    1.955    2.457   107.8    23.0    11.8
2007 05 01    19 23.79   -30 47.5    1.883    2.444   111.8    22.5    11.7
2007 05 06    19 26.86   -30 56.4    1.813    2.430   115.9    21.9    11.6
2007 05 11    19 29.25   -31 06.6    1.746    2.417   120.2    21.2    11.5
2007 05 16    19 30.91   -31 18.3    1.680    2.403   124.6    20.3    11.3
2007 05 21    19 31.80   -31 31.3    1.618    2.389   129.1    19.2    11.2
2007 05 26    19 31.86   -31 45.5    1.559    2.376   133.8    17.9    11.1
2007 05 31    19 31.06   -32 00.7    1.504    2.362   138.6    16.5    10.9
2007 06 05    19 29.40   -32 16.4    1.453    2.348   143.5    14.9    10.8
2007 06 10    19 26.85   -32 32.2    1.407    2.334   148.5    13.1    10.6
2007 06 15    19 23.44   -32 47.4    1.366    2.320   153.6    11.2    10.4
2007 06 20    19 19.22   -33 01.3    1.330    2.306   158.6     9.2    10.3
2007 06 25    19 14.31   -33 12.9    1.300    2.292   163.4     7.3    10.1
2007 06 30    19 08.83   -33 21.4    1.275    2.278   167.3     5.6    10.0
2007 07 05    19 02.95   -33 26.3    1.257    2.264   169.2     4.8     9.9
2007 07 10    18 56.87   -33 26.9    1.245    2.250   168.2     5.3     9.9
2007 07 15    18 50.80   -33 22.9    1.239    2.236   164.7     6.9     9.9
2007 07 20    18 44.97   -33 14.4    1.239    2.222   160.0     9.0    10.0
2007 07 25    18 39.62   -33 01.5    1.245    2.208   154.9    11.3    10.1
2007 07 30    18 34.90   -32 44.8    1.257    2.194   149.6    13.5    10.2
2007 08 04    18 30.97   -32 24.8    1.273    2.180   144.4    15.7    10.3
2007 08 09    18 27.92   -32 02.4    1.294    2.166   139.2    17.8    10.5
2007 08 14    18 25.85   -31 38.0    1.319    2.152   134.2    19.7    10.6
2007 08 19    18 24.78   -31 12.3    1.348    2.138   129.3    21.5    10.6
2007 08 24    18 24.73   -30 45.8    1.380    2.125   124.6    23.0    10.7
2007 08 29    18 25.67   -30 18.8    1.415    2.111   120.1    24.4    10.8
2007 09 03    18 27.56   -29 51.5    1.452    2.098   115.8    25.7    10.9
2007 09 08    18 30.35   -29 24.1    1.491    2.084   111.6    26.7    11.0
2007 09 13    18 34.00   -28 56.5    1.531    2.071   107.6    27.6    11.1
2007 09 18    18 38.44   -28 28.7    1.572    2.058   103.8    28.3    11.1
2007 09 23    18 43.64   -28 00.5    1.615    2.045   100.1    28.9    11.2
2007 09 28    18 49.50   -27 31.7    1.658    2.033    96.6    29.3    11.3

Back to Bright Minor Planets

Astronomical Headlines Index

MPC


Valid HTML 4.01!